Wetbulb
71.07 74.07 77.53 76.99 76.78 76.52 76.66 76.51 76.19 76.05 75.61 77.40 77.79 77.49 76.63 77.40 77.67 77.48 76.86 77.09 77.21 76.61 77.05 76.85 77.23 76.99 76.89 76.20 76.50 77.36 76.55 77.03 76.89 76.66 75.65 75.28 76.07 76.10 76.43 75.80 75.90 73.77 75.83
72.15 74.87 77.83 77.75 76.97 76.67 76.49 75.72 75.48 76.73 76.80 77.37 77.30 77.04 76.74 77.36 77.63 77.17 76.85 76.98 77.08 76.51 77.11 77.13 77.24 76.61 76.91 77.23 77.20 77.07 77.04 77.19 76.97 76.67 76.35 75.54 75.62 76.26 76.41 75.83 76.22 74.75 76.05
73.19 75.07 76.12 77.55 77.35 76.83 76.86 76.24 76.44 76.75 77.49 77.63 77.20 77.23 77.35 77.47 77.77 77.43 77.38 77.69 77.09 77.07 77.03 77.24 77.16 77.13 76.77 77.16 77.02 76.92 77.02 77.15 77.24 76.64 76.20 72.61 73.41 76.47 76.44 76.30 76.25 76.03 76.25
73.90 74.04 75.43 77.63 77.76 76.83 76.56 76.61 76.73 77.17 77.64 77.28 77.25 77.28 77.57 77.55 77.37 77.23 77.62 77.61 77.43 77.29 76.76 76.97 77.20 77.06 77.06 76.92 76.51 76.56 76.71 76.75 77.25 75.92 73.34 73.95 71.39 75.86 75.74 74.73 75.21 75.58 76.04
73.17 73.97 74.92 78.04 77.65 77.29 76.76 77.28 77.42 77.20 77.56 77.54 77.66 77.65 77.75 77.59 77.24 77.12 77.52 77.56 77.55 77.33 77.38 77.11 77.06 76.76 76.43 75.96 76.23 75.98 75.73 75.36 75.68 72.89 71.46 72.65 73.27 75.52 75.79 75.80 75.76 76.10 75.70
73.10 73.78 76.91 77.24 76.82 77.14 77.38 77.10 77.05 77.20 77.73 77.53 77.53 77.71 77.46 77.49 77.80 77.12 77.31 77.40 77.44 77.31 77.27 77.27 76.89 77.01 76.46 76.21 75.79 75.54 75.07 75.49 75.35 70.53 72.57 75.12 73.21 76.05 76.14 75.91 76.70 76.12 73.88
73.24 74.94 76.13 78.26 77.77 76.90 76.93 77.05 76.91 77.18 77.50 77.74 77.55 77.37 77.82 77.61 76.79 77.48 77.40 77.64 77.39 77.39 77.42 77.36 77.15 76.78 76.40 76.26 76.11 76.20 76.62 76.87 72.19 72.95 73.24 72.35 74.44 76.86 76.09 76.11 75.73 75.28 74.71
73.74 74.82 75.65 77.62 77.32 76.79 76.50 76.69 76.69 77.13 77.64 77.91 77.90 78.02 77.89 77.61 77.29 77.81 77.67 77.70 77.67 77.65 77.37 77.16 77.32 76.77 76.34 75.92 75.73 76.40 77.48 76.73 74.80 73.82 73.92 74.40 76.06 76.21 75.29 75.76 76.01 76.01 75.78
74.19 74.52 74.56 74.96 75.77 76.50 76.30 76.22 76.15 76.99 77.72 77.51 77.74 77.68 78.06 77.77 77.73 77.48 77.89 77.82 77.13 77.07 77.40 77.39 76.99 76.78 76.10 75.43 75.68 76.81 76.59 76.38 73.56 73.14 74.57 74.85 76.84 76.70 76.16 76.04 76.14 75.91 75.86
73.80 74.03 73.73 74.13 74.61 74.46 74.38 76.91 77.14 77.24 77.52 77.82 77.77 77.82 78.03 77.90 77.99 77.79 78.05 78.08 77.40 77.29 76.99 77.09 76.85 75.70 75.26 75.01 76.20 76.48 76.26 75.87 72.93 73.78 73.81 74.27 76.16 75.58 76.44 76.07 75.94 75.99 76.08
73.03 72.94 73.91 74.01 73.74 73.91 73.44 75.45 77.24 77.72 77.36 77.50 77.53 77.93 78.25 74.59 74.24 75.48 76.65 77.62 77.21 77.35 77.07 77.28 77.10 76.30 75.57 76.01 76.37 76.40 75.82 73.02 73.56 73.85 74.89 76.62 77.33 76.63 76.32 76.25 75.72 75.48 75.82
71.37 71.79 71.98 72.75 72.97 73.86 75.24 73.71 73.33 74.42 74.97 74.27 74.67 75.36 74.26 74.05 73.88 75.24 76.26 77.37 77.46 77.18 77.18 77.31 77.27 76.86 75.64 73.57 73.84 73.86 73.64 72.94 72.24 73.92 75.37 76.70 76.52 75.34 76.14 76.24 75.98 75.95 75.83
71.08 71.78 71.52 71.34 72.45 73.18 73.66 73.38 73.53 73.90 73.82 73.61 73.82 74.67 74.31 74.54 74.48 74.32 74.34 75.07 74.38 76.57 74.51 75.84 76.49 75.78 73.19 73.04 73.39 72.01 72.45 72.88 72.82 73.31 75.31 77.12 77.08 75.94 76.53 76.41 76.43 76.15 76.25
70.10 71.08 71.49 71.74 72.88 71.93 73.32 73.96 73.72 73.72 73.44 73.09 73.47 73.68 73.86 72.47 72.23 72.68 73.23 73.60 73.44 73.92 72.80 73.44 73.67 73.04 72.08 73.04 72.83 72.52 71.64 70.54 72.19 73.67 75.01 77.11 76.54 76.31 75.55 76.26 76.04 76.20 75.97
69.52 70.23 71.10 71.88 72.59 72.11 72.62 73.92 73.45 73.24 73.85 73.31 73.57 73.29 73.39 71.33 70.68 71.79 72.48 72.65 72.78 72.59 72.58 71.52 72.42 72.01 71.11 72.97 72.91 72.04 71.69 70.57 70.69 72.30 72.78 76.37 75.88 76.20 75.93 75.97 76.06 75.95 75.31
70.21 69.86 71.46 71.13 72.02 72.81 72.99 72.48 73.40 73.87 73.76 73.00 73.56 73.49 72.84 71.69 70.70 70.56 71.50 72.60 73.33 72.36 71.98 71.89 71.42 70.45 70.57 71.94 71.96 71.27 70.67 70.49 69.92 69.76 71.93 73.32 75.41 76.24 75.94 75.95 75.83 75.83 75.70
70.04 70.79 71.52 71.75 71.99 71.63 71.99 71.87 73.11 73.54 74.12 72.87 73.15 72.99 72.92 72.53 72.17 71.09 71.48 71.38 71.32 72.22 72.34 70.93 69.38 69.27 69.21 68.98 69.90 70.90 71.03 70.01 69.72 68.53 70.87 72.82 72.74 74.49 75.11 74.91 75.07 76.02 75.79
69.59 70.98 71.29 73.24 71.44 71.76 71.00 71.24 72.86 73.20 74.16 72.70 73.32 73.58 71.98 72.90 72.74 72.71 71.89 71.44 72.62 72.93 71.61 69.03 67.68 70.12 69.62 70.19 68.78 67.76 70.88 71.03 71.74 70.67 70.77 72.45 71.97 71.81 74.49 75.44 74.69 74.60 75.51
69.96 70.59 70.07 71.22 70.35 71.00 70.84 70.85 71.40 72.97 74.18 73.23 73.94 73.49 73.81 73.12 73.13 73.22 72.82 73.29 71.55 72.81 71.99 69.11 70.39 70.62 70.39 70.30 70.11 67.82 69.25 69.41 71.21 72.26 71.76 71.86 71.42 71.01 69.18 72.08 74.67 74.74 74.30
69.88 70.35 69.88 70.81 69.58 70.28 70.19 69.50 70.04 70.52 72.03 73.60 74.30 72.52 73.85 73.29 73.75 72.53 73.34 72.84 72.51 72.59 71.51 72.41 71.11 71.43 71.36 71.36 71.83 70.16 67.73 68.46 68.19 70.25 71.33 71.44 71.30 70.71 69.47 67.82 68.11 71.38 74.36
69.98 68.99 69.02 69.03 69.06 70.06 69.42 67.46 67.31 68.45 70.23 71.85 73.10 72.95 73.74 73.10 74.19 72.83 73.05 72.78 72.69 71.94 70.96 70.94 70.86 70.38 70.19 70.46 68.22 68.94 69.31 69.59 68.69 69.69 70.59 71.12 70.28 70.58 69.98 69.90 69.10 69.74 70.61
69.31 69.31 69.43 69.75 69.99 70.35 70.04 69.74 69.11 69.04 70.45 72.38 73.69 73.84 73.66 74.07 74.08 73.62 72.14 72.21 72.36 72.38 71.59 71.25 71.87 70.47 69.06 70.53 67.46 65.29 63.70 65.76 67.93 70.05 70.44 70.50 70.40 70.27 70.00 70.59 70.14 69.67 70.17
69.50 69.39 70.15 69.86 70.87 70.96 70.46 70.18 70.44 71.40 71.24 70.73 71.87 72.66 73.63 74.54 74.22 73.87 72.52 72.84 72.39 72.12 70.99 71.69 70.78 69.47 68.40 69.76 69.55 66.12 62.16 61.47 64.44 66.88 69.53 70.09 69.48 69.55 69.67 69.89 70.20 70.23 70.01
69.86 70.81 70.48 71.16 70.95 71.45 70.77 69.67 69.67 70.11 69.17 70.30 71.14 72.83 73.56 74.04 73.84 74.09 72.98 72.77 72.66 72.76 71.75 71.70 72.16 71.03 70.16 68.52 69.96 70.59 67.95 67.39 64.24 63.49 69.42 69.67 70.48 69.19 68.94 68.83 69.49 69.99 69.72
70.58 70.72 70.91 72.22 70.83 71.55 71.29 70.94 70.33 69.89 70.65 70.80 70.92 71.47 72.43 73.61 74.24 74.25 73.84 73.15 72.82 73.41 72.55 72.13 72.06 71.58 71.77 69.89 69.58 68.95 68.54 67.84 67.19 65.47 63.12 65.64 68.20 69.80 70.68 69.77 69.67 69.60 70.70
71.36 71.51 71.45 71.49 71.84 71.51 71.56 72.11 70.50 70.74 70.56 71.81 70.99 70.34 71.82 73.34 74.61 74.24 74.73 74.46 73.89 73.95 73.97 73.73 73.07 72.08 71.74 71.74 71.27 70.57 68.40 67.05 65.89 65.89 65.37 65.61 66.62 68.38 70.17 70.58 70.12 69.77 69.91
MSLP
1017.60 1017.35 1017.29 1017.34 1017.57 1017.76 1017.77 1017.79 1017.91 1017.98 1017.96 1017.95 1017.82 1017.76 1017.74 1017.78 1017.94 1017.97 1018.15 1018.33 1018.40 1018.46 1018.61 1018.73 1018.87 1019.01 1019.09 1019.16 1019.16 1019.19 1019.13 1019.12 1019.15 1019.22 1019.35 1019.53 1019.63 1019.67 1019.65 1019.71 1019.82 1019.96 1020.08
1016.97 1017.18 1017.27 1017.34 1017.52 1017.81 1017.88 1017.96 1017.98 1018.08 1018.23 1018.21 1018.07 1018.02 1018.01 1018.14 1018.19 1018.47 1018.56 1018.50 1018.56 1018.69 1018.84 1018.95 1019.11 1019.22 1019.28 1019.36 1019.39 1019.37 1019.37 1019.33 1019.26 1019.27 1019.35 1019.52 1019.73 1019.93 1019.95 1020.02 1020.02 1020.11 1020.19
1016.87 1017.11 1017.36 1017.49 1017.63 1017.89 1018.10 1018.21 1018.21 1018.34 1018.40 1018.38 1018.40 1018.30 1018.39 1018.45 1018.58 1018.70 1018.68 1018.74 1018.91 1019.00 1019.08 1019.23 1019.29 1019.36 1019.45 1019.58 1019.58 1019.53 1019.53 1019.54 1019.56 1019.68 1019.76 1019.91 1019.92 1020.13 1020.32 1020.46 1020.38 1020.48 1020.40
1016.87 1017.24 1017.51 1017.59 1017.72 1017.97 1018.17 1018.30 1018.46 1018.60 1018.46 1018.41 1018.48 1018.55 1018.61 1018.63 1018.64 1018.72 1018.90 1019.11 1019.27 1019.34 1019.41 1019.46 1019.48 1019.59 1019.72 1019.74 1019.65 1019.68 1019.70 1019.85 1019.89 1020.13 1020.15 1020.12 1020.27 1020.46 1020.61 1020.80 1020.94 1020.88 1020.89
1017.10 1017.36 1017.54 1017.56 1017.73 1018.05 1018.22 1018.34 1018.52 1018.59 1018.53 1018.59 1018.65 1018.66 1018.66 1018.77 1018.76 1018.83 1019.02 1019.34 1019.54 1019.65 1019.70 1019.80 1019.84 1019.90 1019.91 1019.86 1019.92 1020.03 1020.20 1020.28 1020.29 1020.28 1020.41 1020.31 1020.39 1020.72 1020.90 1020.98 1021.04 1021.08 1021.23
1017.23 1017.50 1017.53 1017.62 1017.85 1018.16 1018.30 1018.31 1018.56 1018.76 1018.68 1018.72 1018.80 1018.88 1018.98 1019.06 1019.12 1019.24 1019.34 1019.56 1019.78 1019.82 1020.03 1020.00 1020.08 1020.07 1020.12 1020.17 1020.21 1020.28 1020.39 1020.42 1020.39 1020.70 1020.89 1020.86 1020.83 1020.81 1021.08 1021.21 1021.09 1021.17 1021.31
1017.33 1017.54 1017.64 1017.76 1017.94 1018.17 1018.37 1018.42 1018.63 1018.85 1018.97 1019.05 1019.08 1019.17 1019.15 1019.26 1019.44 1019.61 1019.79 1019.95 1020.05 1019.95 1020.12 1020.12 1020.13 1020.39 1020.47 1020.51 1020.56 1020.53 1020.36 1020.35 1020.85 1020.97 1021.10 1021.17 1021.17 1021.22 1021.41 1021.49 1021.51 1021.58 1021.56
1017.32 1017.57 1017.73 1017.93 1018.10 1018.26 1018.41 1018.61 1018.82 1019.04 1019.12 1019.16 1019.25 1019.32 1019.33 1019.43 1019.61 1019.84 1020.02 1020.23 1020.32 1020.17 1020.16 1020.29 1020.34 1020.42 1020.64 1020.72 1020.86 1020.79 1020.62 1020.92 1021.24 1021.34 1021.26 1021.39 1021.57 1021.49 1021.50 1021.68 1021.75 1021.80 1021.80
1017.43 1017.58 1017.87 1018.10 1018.26 1018.41 1018.57 1018.84 1019.11 1019.24 1019.29 1019.39 1019.49 1019.51 1019.58 1019.66 1019.80 1020.02 1020.14 1020.28 1020.38 1020.42 1020.46 1020.51 1020.53 1020.58 1020.72 1020.89 1021.07 1020.98 1021.11 1021.18 1021.38 1021.34 1021.39 1021.39 1021.51 1021.63 1021.72 1021.86 1021.82 1021.84 1021.97
1017.57 1017.82 1018.05 1018.25 1018.41 1018.60 1018.74 1018.95 1019.17 1019.36 1019.45 1019.55 1019.68 1019.69 1019.66 1019.74 1019.91 1020.10 1020.29 1020.38 1020.48 1020.59 1020.72 1020.79 1020.72 1020.74 1020.81 1020.98 1021.11 1021.03 1021.07 1021.17 1021.53 1021.48 1021.58 1021.56 1021.57 1021.77 1021.82 1021.93 1022.03 1021.99 1022.10
1018.03 1018.20 1018.04 1018.23 1018.63 1018.90 1019.11 1019.18 1019.30 1019.43 1019.57 1019.73 1019.84 1019.82 1019.87 1020.09 1020.14 1020.43 1020.40 1020.32 1020.53 1020.68 1020.88 1021.05 1020.96 1020.96 1020.98 1021.16 1020.96 1020.89 1020.93 1021.43 1021.64 1021.79 1021.79 1021.78 1021.76 1021.84 1021.97 1021.96 1022.07 1022.21 1022.21
1017.88 1018.11 1018.15 1018.27 1018.56 1018.97 1019.04 1019.36 1019.52 1019.57 1019.66 1019.84 1019.97 1020.00 1020.15 1020.26 1020.44 1020.42 1020.45 1020.45 1020.59 1020.76 1020.92 1021.10 1021.08 1021.08 1021.51 1021.71 1021.44 1021.28 1021.43 1021.31 1021.50 1021.80 1021.94 1021.96 1021.94 1022.02 1022.04 1021.94 1022.04 1022.18 1022.23
1017.30 1017.69 1017.97 1018.11 1018.35 1018.65 1018.78 1019.26 1019.47 1019.60 1019.69 1019.85 1019.90 1020.05 1020.23 1020.40 1020.58 1020.59 1020.61 1020.58 1020.68 1020.82 1021.03 1021.05 1020.95 1021.22 1021.78 1021.85 1021.55 1021.60 1021.50 1021.56 1021.65 1021.84 1021.86 1021.83 1022.05 1022.03 1022.02 1022.04 1022.04 1022.17 1022.22
1016.98 1017.14 1017.57 1017.72 1018.10 1018.46 1018.64 1018.88 1019.07 1019.36 1019.63 1019.84 1019.93 1020.04 1020.22 1020.45 1020.76 1020.81 1020.74 1020.73 1020.89 1021.03 1021.23 1021.28 1021.37 1021.48 1021.70 1021.73 1021.69 1021.80 1021.80 1021.98 1021.86 1021.69 1021.80 1021.95 1022.24 1022.34 1022.24 1021.99 1022.11 1022.21 1022.36
1016.59 1016.85 1017.20 1017.35 1017.64 1018.03 1018.49 1018.62 1018.79 1019.04 1019.33 1019.45 1019.70 1019.88 1020.02 1020.33 1020.74 1020.74 1020.79 1020.89 1021.03 1021.16 1021.34 1021.53 1021.57 1021.69 1021.87 1021.91 1021.78 1021.72 1022.18 1022.32 1022.09 1022.06 1021.99 1022.15 1022.32 1022.31 1022.23 1022.04 1022.02 1022.20 1022.43
1016.03 1016.42 1016.75 1017.20 1017.14 1017.49 1018.03 1018.36 1018.40 1018.65 1018.89 1019.22 1019.48 1019.55 1019.79 1020.08 1020.52 1020.77 1020.92 1020.86 1020.98 1020.89 1021.14 1021.53 1021.60 1021.60 1021.70 1021.71 1021.70 1021.77 1022.01 1022.16 1022.34 1022.30 1022.27 1022.38 1022.24 1021.98 1021.86 1021.88 1021.95 1022.11 1022.29
1015.56 1016.02 1016.45 1016.74 1016.88 1017.23 1017.61 1017.95 1018.09 1018.35 1018.67 1018.91 1019.15 1019.31 1019.52 1019.82 1020.04 1020.30 1020.60 1020.62 1020.41 1020.44 1020.79 1021.29 1021.66 1021.82 1021.91 1021.80 1021.77 1021.68 1021.60 1021.83 1022.08 1022.16 1022.25 1022.22 1022.17 1021.66 1021.53 1021.75 1022.00 1021.94 1022.17
1015.40 1015.92 1016.22 1016.44 1016.76 1017.10 1017.36 1017.70 1017.94 1018.14 1018.29 1018.67 1018.92 1019.16 1019.24 1019.31 1019.48 1019.76 1020.16 1020.43 1020.08 1020.10 1020.53 1020.98 1021.54 1022.05 1022.07 1021.95 1021.88 1021.82 1021.54 1021.47 1021.54 1021.67 1021.86 1021.96 1021.90 1021.86 1021.57 1021.59 1021.95 1021.97 1021.99
1015.13 1015.74 1015.98 1016.26 1016.71 1016.95 1017.05 1017.52 1017.85 1017.94 1018.17 1018.51 1018.72 1018.95 1019.03 1019.15 1019.30 1019.63 1019.88 1019.85 1020.01 1020.23 1020.64 1021.00 1021.52 1021.41 1021.53 1021.77 1022.08 1021.96 1021.60 1021.48 1021.45 1021.34 1021.46 1021.65 1021.68 1021.62 1021.65 1021.67 1021.67 1021.85 1021.89
1014.92 1015.38 1015.82 1016.17 1016.51 1016.85 1017.03 1017.47 1017.94 1017.98 1018.16 1018.33 1018.51 1018.83 1018.92 1019.02 1019.05 1019.40 1019.65 1019.68 1019.70 1019.97 1020.57 1020.70 1021.02 1021.23 1021.21 1021.22 1021.27 1021.67 1021.57 1021.40 1021.38 1021.32 1021.18 1021.20 1021.34 1021.47 1021.54 1021.70 1021.89 1021.77 1021.67
1014.71 1015.31 1015.76 1016.14 1016.42 1016.69 1017.28 1017.77 1018.16 1018.24 1018.48 1018.56 1018.45 1018.59 1018.73 1018.90 1018.98 1019.19 1019.44 1019.66 1019.78 1020.11 1020.29 1020.36 1020.58 1020.91 1021.22 1021.40 1021.71 1021.43 1021.17 1021.10 1021.32 1021.28 1020.98 1020.96 1021.01 1021.11 1021.24 1021.37 1021.55 1021.69 1021.69
1014.39 1014.95 1015.38 1015.68 1016.11 1016.38 1016.78 1017.05 1017.50 1017.96 1018.05 1018.01 1017.92 1018.24 1018.31 1018.43 1018.65 1018.84 1019.14 1019.44 1019.59 1020.13 1020.16 1020.31 1020.47 1020.81 1021.04 1021.18 1021.53 1021.93 1021.65 1021.19 1020.91 1020.69 1020.74 1020.67 1020.69 1020.81 1020.92 1020.92 1020.96 1021.18 1021.33
1013.94 1014.43 1014.83 1015.21 1015.69 1016.07 1016.53 1016.94 1017.22 1017.63 1017.92 1018.16 1018.15 1018.22 1018.18 1018.21 1018.32 1018.52 1018.66 1019.02 1019.21 1019.41 1019.84 1020.01 1020.26 1020.53 1020.83 1020.97 1021.06 1021.31 1021.66 1021.46 1020.98 1020.38 1020.46 1020.46 1020.26 1020.52 1020.49 1020.47 1020.47 1020.59 1020.78
1013.30 1013.71 1014.31 1014.85 1015.33 1015.73 1016.21 1016.79 1017.09 1017.28 1017.74 1017.81 1017.75 1017.75 1017.88 1017.97 1017.97 1018.02 1018.20 1018.41 1018.57 1018.74 1019.10 1019.24 1019.50 1019.93 1020.34 1020.68 1020.89 1020.69 1020.73 1020.97 1021.06 1020.82 1020.03 1019.87 1019.75 1019.76 1019.72 1019.73 1019.71 1019.78 1020.08
1012.60 1013.16 1013.80 1014.50 1015.21 1015.73 1016.23 1016.50 1016.84 1017.16 1017.30 1017.38 1017.41 1017.55 1017.64 1017.52 1017.48 1017.51 1017.63 1017.82 1018.21 1018.38 1018.62 1018.75 1019.01 1019.37 1019.71 1020.03 1020.19 1020.28 1020.37 1020.59 1020.76 1020.92 1020.39 1019.75 1019.66 1019.23 1019.11 1018.99 1019.15 1019.17 1019.40
1012.29 1012.80 1013.52 1014.28 1014.95 1015.53 1016.03 1016.34 1016.65 1016.91 1017.16 1017.41 1017.49 1017.59 1017.38 1017.43 1017.43 1017.15 1017.18 1017.44 1017.66 1017.93 1018.17 1018.16 1018.41 1018.65 1018.89 1019.04 1019.29 1019.61 1019.88 1020.07 1020.08 1020.29 1020.55 1020.22 1019.64 1018.88 1018.44 1018.44 1018.48 1018.40 1018.66
Wind_Speed
6 6 9 11 13 13 13 12 10 10 10 10 11 13 15 16 15 14 12 13 14 13 12 13 14 15 13 12 13 15 16 17 17 17 17 15 14 14 15 15 15 11 14
11 8 11 13 14 12 13 11 9 11 9 10 11 12 14 14 14 12 12 12 13 13 12 13 13 14 12 12 13 13 14 15 16 15 16 14 12 12 14 14 14 12 14
12 9 9 13 14 14 13 12 11 10 11 12 12 13 13 14 14 13 14 16 14 13 13 12 12 13 12 13 13 13 13 12 14 14 15 6 7 15 14 13 13 13 14
12 8 8 13 13 14 13 13 12 11 12 12 12 13 14 13 13 14 14 14 13 13 13 12 11 12 12 12 11 11 10 10 13 10 4 5 9 12 13 12 11 10 14
10 8 10 13 13 14 14 12 11 11 11 12 13 13 14 13 14 14 14 13 13 12 12 11 11 10 11 11 11 9 9 6 6 8 5 6 5 10 11 11 10 9 12
11 7 13 14 14 14 13 12 11 11 12 13 12 13 14 14 13 14 14 14 14 12 12 11 11 10 11 10 7 4 1 2 8 6 5 7 5 11 10 8 11 12 12
13 9 11 14 13 13 13 12 11 11 11 12 12 13 13 13 13 14 13 13 13 12 12 11 10 9 8 7 6 7 7 9 7 6 5 5 5 10 9 10 10 10 11
13 11 9 14 13 12 12 11 10 10 11 11 12 12 14 13 13 13 12 12 12 11 11 11 9 8 7 6 8 10 11 12 7 5 5 4 7 9 10 9 8 8 8
11 10 7 7 10 13 12 11 11 10 10 11 11 12 11 13 13 12 11 13 11 10 10 9 8 7 5 7 10 11 11 10 5 4 6 4 9 9 9 9 8 8 7
11 10 8 6 5 5 5 14 13 12 10 12 11 12 12 13 13 12 9 9 10 10 9 8 7 6 6 8 12 11 11 12 4 4 3 3 9 10 9 9 7 7 7
10 8 8 8 6 6 5 7 12 13 12 11 10 11 7 3 6 8 7 9 9 9 8 8 7 5 6 11 9 6 7 3 4 2 2 7 8 10 9 8 7 5 6
12 10 8 8 8 7 7 5 5 5 4 4 4 4 3 4 4 5 6 8 9 8 8 7 7 6 9 5 3 5 2 3 2 4 2 7 8 9 8 8 7 8 7
14 10 11 9 9 8 6 4 3 2 3 3 5 5 4 2 2 3 2 2 3 6 3 4 4 3 6 3 3 2 3 1 1 1 3 9 8 10 10 8 7 7 7
15 14 13 12 10 6 5 5 5 4 4 3 4 5 4 3 4 4 3 4 3 3 3 3 2 4 4 4 3 5 2 0 1 2 4 7 7 8 7 9 6 6 6
15 14 15 13 12 9 8 6 5 5 4 5 4 5 4 4 4 4 3 3 3 3 3 3 3 4 4 5 4 5 4 4 5 2 2 9 7 7 6 6 7 5 4
15 15 15 13 13 11 9 7 7 5 5 4 4 5 7 5 4 4 3 4 4 4 4 4 4 4 3 4 4 5 5 7 6 5 2 2 10 11 9 8 7 6 6
14 13 16 15 10 11 10 9 6 6 5 5 5 8 7 7 6 6 4 4 4 5 5 5 4 3 3 3 4 4 4 4 5 6 4 4 6 9 10 8 7 7 7
14 13 12 12 10 10 9 5 5 5 6 4 4 4 6 6 6 5 4 4 3 4 4 5 4 4 3 3 4 4 4 4 4 5 5 4 4 4 7 9 8 8 9
16 13 9 9 9 8 7 5 5 7 5 4 4 4 6 6 6 5 3 2 5 4 4 4 3 3 3 2 2 3 4 4 4 4 6 6 7 6 4 7 9 11 11
14 12 10 9 9 8 5 4 2 4 3 5 5 4 6 5 6 4 3 1 3 3 3 4 4 4 3 4 4 4 4 4 4 5 7 6 6 7 6 6 4 5 12
12 10 10 9 8 6 3 3 2 2 3 3 4 7 7 6 5 5 3 3 3 3 5 5 3 5 3 2 1 3 3 6 5 5 5 5 6 6 5 6 4 4 5
15 13 13 13 10 8 4 3 4 3 3 6 6 6 7 7 7 6 6 5 5 3 3 4 4 2 3 4 3 1 3 3 3 6 5 5 8 4 7 8 7 7 6
16 14 12 14 13 10 8 3 2 2 2 2 3 3 7 8 7 7 7 6 6 5 4 5 4 5 3 3 5 3 1 3 2 0 4 5 7 6 6 7 7 7 8
17 15 14 12 14 10 10 6 6 4 4 4 5 6 7 7 7 8 7 7 7 5 5 5 5 4 4 4 2 5 3 2 1 4 2 4 6 7 7 6 7 8 8
17 16 14 13 12 10 9 8 6 5 4 3 3 5 6 6 8 10 9 8 6 5 6 6 5 6 5 4 4 2 3 3 4 4 4 4 2 5 7 8 7 7 8
15 15 13 13 12 11 11 8 8 8 6 4 3 4 5 4 7 8 9 7 7 7 7 6 7 7 7 6 5 4 4 4 4 4 4 3 4 5 6 7 8 8 8
Wind_Direction
177 171 156 140 139 134 131 122 113 101 89 80 86 83 89 87 93 96 96 104 104 99 96 96 97 97 101 97 100 100 105 106 104 97 97 101 102 109 103 106 106 110 110
148 159 147 138 141 137 130 127 119 106 106 96 85 92 94 97 98 97 100 104 111 103 105 104 105 101 106 106 106 105 109 109 100 101 103 96 112 107 109 110 111 113 109
144 145 140 143 143 137 135 135 125 122 112 108 108 105 106 106 106 102 94 102 107 110 108 107 110 110 109 103 102 106 104 98 97 94 99 93 81 115 109 103 103 108 111
140 138 144 141 142 136 137 134 137 117 113 110 109 111 109 109 109 105 102 107 112 112 117 111 111 106 100 99 102 98 100 111 114 85 75 81 99 107 109 108 109 107 109
134 137 148 144 142 138 140 138 127 120 118 117 111 109 106 115 113 110 110 113 122 124 113 112 103 100 95 94 87 85 93 98 68 89 90 102 97 107 114 121 122 107 102
133 142 145 148 145 143 142 141 130 124 123 115 114 110 113 116 119 117 119 120 116 115 110 106 103 103 100 96 85 67 56 163 89 88 71 78 77 115 115 129 120 116 114
139 144 143 146 148 149 149 148 138 126 119 119 115 118 113 115 116 117 114 120 122 121 114 114 111 106 98 93 58 35 20 133 112 100 98 87 91 97 119 104 120 121 125
140 141 147 143 147 150 153 149 140 125 123 121 123 122 125 128 126 122 127 120 121 120 122 122 114 115 110 99 64 36 86 108 101 98 94 89 105 115 118 115 117 123 132
138 138 136 143 149 149 155 154 147 136 131 125 131 130 138 135 132 131 139 132 131 126 125 127 126 125 108 73 63 61 87 98 98 113 119 112 120 124 121 126 120 134 127
143 145 145 146 128 131 130 143 147 146 143 141 144 145 142 138 139 137 135 142 143 139 141 144 141 126 107 84 66 67 94 99 96 112 111 133 135 139 129 121 121 132 134
153 155 156 144 136 134 135 152 150 152 153 157 150 155 136 125 119 125 159 163 154 147 154 155 150 139 105 78 72 78 110 89 70 91 126 154 144 136 128 131 128 149 136
163 168 166 155 154 154 159 153 167 169 150 149 154 142 145 142 147 154 162 159 153 153 149 151 155 146 71 79 62 72 46 138 134 148 160 162 146 142 143 136 138 141 151
170 166 168 168 165 166 156 158 173 163 163 172 173 170 186 158 203 150 177 168 163 163 148 168 184 134 111 139 153 89 98 46 137 185 166 168 164 156 152 149 154 146 152
173 170 171 174 168 178 157 171 179 171 177 184 193 187 185 167 166 176 193 192 186 152 176 189 166 101 128 163 172 158 225 137 195 167 180 194 172 175 166 153 158 157 147
172 172 177 175 172 169 167 181 179 191 180 189 190 188 189 168 172 173 209 202 208 172 175 186 191 160 148 180 180 194 175 210 246 219 176 174 181 184 187 175 167 170 170
171 171 174 181 181 165 178 189 182 194 198 178 175 195 173 182 177 176 211 219 209 195 172 177 167 145 160 166 214 222 205 194 210 220 149 210 196 180 183 196 186 182 182
174 161 173 179 170 164 179 189 173 183 177 188 182 177 176 180 196 174 191 214 219 195 164 148 151 138 167 182 184 221 244 204 203 211 197 194 219 210 183 188 208 193 194
156 163 162 159 160 158 170 165 173 184 174 187 180 169 185 198 191 191 181 205 202 163 156 150 163 159 197 181 185 205 214 227 216 211 216 208 214 218 213 206 212 214 204
163 162 158 147 157 169 166 141 154 192 180 186 170 185 186 187 180 166 180 230 183 167 152 167 193 177 186 128 289 262 227 214 227 219 228 209 213 216 237 239 221 223 216
165 163 160 162 166 170 161 143 140 145 170 187 179 192 183 195 187 166 178 38 158 145 167 180 177 197 183 183 191 234 237 240 227 227 225 219 211 215 218 224 240 247 228
166 160 168 162 179 150 149 153 127 179 167 198 183 192 193 198 199 174 194 172 162 161 183 186 161 180 207 204 35 287 258 229 230 234 227 223 229 221 215 223 210 222 259
174 178 173 176 171 170 175 169 152 160 189 191 195 204 193 194 190 188 181 201 210 174 220 212 188 179 212 182 167 56 310 328 261 225 209 218 229 215 224 229 225 215 216
178 177 173 179 175 176 179 154 126 89 90 115 199 191 204 206 190 195 193 192 195 185 205 214 205 194 213 225 215 163 239 240 309 272 214 215 214 213 217 220 222 220 218
184 182 173 173 175 178 176 178 177 176 184 200 185 203 206 208 201 198 199 202 201 193 204 210 198 199 159 211 229 232 215 160 243 316 240 236 213 220 223 223 232 229 220
180 183 178 176 179 175 180 185 189 200 202 216 199 190 206 213 210 207 208 200 204 208 210 206 197 193 193 179 192 196 212 208 217 225 276 287 265 233 224 222 215 225 220
183 182 178 174 184 180 184 190 193 207 210 197 204 201 211 210 220 220 217 209 202 214 212 208 210 205 201 198 193 202 184 185 200 196 232 310 270 258 220 219 218 218 218